Hourly Weather Roundup
Issued by NWS Central Illinois

Home | Current Version | Previous Version | Text Only | Print | Product List | Glossary On
Versions: 1 2 3 4 5 6 7 8 9 10 11 12 13 14 15 16 17 18 19 20 21 22 23 24 25 26 27 28 29 30 31 32 33 34 35 36 37 38 39 40 41 42 43 44 45 46 47 48 49 50
480
NZUS43 KILX 231210
HWRILX

AREA WEATHER ROUNDUP
NATIONAL WEATHER SERVICE, LINCOLN IL
600 AM CST MON JAN 23 2017


CITY           SKY/WX    TMP DP  RH WIND       PRES   REMARKS
BLOOMINGTON    CLOUDY    37  35  92 N16       29.74S WCI  28
6HR MIN TEMP:  37; 6HR MAX TEMP:  38; 6HR PCP: TRACE;

CHAMPAIGN      CLOUDY    38  35  89 N18       29.69R WCI  28
6HR MIN TEMP:  38; 6HR MAX TEMP:  40;

DANVILLE       CLOUDY    39  38  94 N18G25    29.65R WCI  30
6HR MIN TEMP:  39; 6HR MAX TEMP:  41;

DECATUR        CLOUDY    39  37  92 NW15G23   29.72S WCI  31
6HR MIN TEMP:  39; 6HR MAX TEMP:  40;

EFFINGHAM      CLOUDY    41  39  93 NW15G23   29.71S WCI  33
6HR MIN TEMP:  40; 6HR MAX TEMP:  43;

FLORA          CLOUDY    43  38  85 NW16G22   29.69R
6HR MIN TEMP:  42; 6HR MAX TEMP:  46;

GALESBURG      CLOUDY    35  35 100 NW10      29.77S FOG     WCI  28
6HR MIN TEMP:  35; 6HR MAX TEMP:  36;

JACKSONVILLE   CLOUDY    37  35  92 N9        29.79R WCI  30
6HR MIN TEMP:  37; 6HR MAX TEMP:  37;

LACON          CLOUDY    37  35  95 N5        29.76R WCI  33
6HR MIN TEMP:  37; 6HR MAX TEMP:  37;

LAWRENCEVILLE  CLOUDY    42  40  92 NW17      29.63R WCI  34
6HR MIN TEMP:  42; 6HR MAX TEMP:  48;

LITCHFIELD     CLOUDY    37  36  94 N18       29.76R FOG     WCI  27
6HR MIN TEMP:  37; 6HR MAX TEMP:  38;

$$


CITY           SKY/WX    TMP DP  RH WIND       PRES   REMARKS
LINCOLN        CLOUDY    38  37  93 N9        29.76S WCI  32
6HR MIN TEMP:  38; 6HR MAX TEMP:  40;

MACOMB         CLOUDY    36  35  96 NW12      29.81R WCI  28
6HR MIN TEMP:  36; 6HR MAX TEMP:  37;

MATTOON        CLOUDY    39  37  92 N17       29.68R WCI  30
6HR MIN TEMP:  39; 6HR MAX TEMP:  41;

MT CARMEL AP   CLOUDY    42  38  87 NW22G29   29.62R WCI  33
6HR MIN TEMP:  42; 6HR MAX TEMP:  48;

OLNEY-NOBLE AP CLOUDY    41  41 100 NW21G26   29.67R WCI  32
PARIS          CLOUDY    40  39  95 N15G25    29.67R FOG     WCI  32
6HR MIN TEMP:  40; 6HR MAX TEMP:  42;

PEORIA         CLOUDY    37  35  92 N8        29.77R WCI  31
6HR MIN TEMP:  37; 6HR MAX TEMP:  39;

PONTIAC        CLOUDY    38  38 100 NW12      29.75S WCI  30
6HR MIN TEMP:  38; 6HR MAX TEMP:  40;

RANTOUL        CLOUDY    40  38  93 N15       29.70R FOG     WCI  31
6HR MIN TEMP:  40; 6HR MAX TEMP:  42;

SPRINGFIELD    CLOUDY    39  35  86 N12       29.78R WCI  32
6HR MIN TEMP:  39; 6HR MAX TEMP:  40; 6HR PCP: TRACE;

TAYLORVILLE    CLOUDY    38  36  93 NW17G23   29.75S WCI  28
6HR MIN TEMP:  38; 6HR MAX TEMP:  39;

$$

...REGIONAL REPORTS...


CITY           SKY/WX    TMP DP  RH WIND       PRES   REMARKS
CHICAGO O`HARE CLOUDY    38  35  89 N13       29.73S WCI  30
KANKAKEE       CLOUDY    38  35  89 NW9       29.72S WCI  32
MOLINE         CLOUDY    37  33  85 NW8       29.78S WCI  31
MOUNT STERLING CLOUDY    36  34  93 NW13      29.78R WCI  28
MOUNT VERNON   CLOUDY    41  36  82 VRB6      29.70R
PITTSFIELD     CLOUDY    39  36  89 NW9       29.80R WCI  32
QUINCY         CLOUDY    38  35  89 NW13      29.80R WCI  30
ROCKFORD       CLOUDY    37  35  92 NW7       29.77R FOG     WCI  32
$$


CITY           SKY/WX    TMP DP  RH WIND       PRES   REMARKS
BURLINGTON     CLOUDY    37  35  92 NW8       29.80R WCI  31
CEDAR RAPIDS   CLOUDY    34  33  96 NW9       29.80R FOG     WCI  27
DES MOINES     DRIZZLE   33  30  88 NW9       29.86S FOG     WCI  25
KIRKSVILLE     CLOUDY    37  35  92 NW7       29.84R WCI  32
OTTUMWA        CLOUDY    35  32  88 NW13      29.83R FOG     WCI  26
ST LOUIS       CLOUDY    41  36  82 NW10      29.79R WCI  35
$$


CITY           SKY/WX    TMP DP  RH WIND       PRES   REMARKS
TERRE HAUTE    CLOUDY    42  38  85 N15G29    29.62R WCI  34
EVANSVILLE     CLOUDY    44  39  82 NW16G24   29.61R HAZE
INDIANAPOLIS   CLOUDY    43  42  97 N16       29.59R FOG
LAFAYETTE      CLOUDY    39  39 100 N14G22    29.65R WCI  31
MADISON        CLOUDY    35  34  96 NW5       29.77R WCI  31
MILWAUKEE      CLOUDY    39  36  89 NW6       29.73S WCI  35
$$






USA.gov is the U.S. government's official web portal to all federal, state and local government web resources and services.